Find Starlink 30184

NORAD ID: 57310 Int'l Des: 2023-096 Owner: SPXS Country: US Constellation: starlink operational
LEOCIRCULAR

現在のビュー

3D地球を読み込み中...

About Starlink 30184

Starlink 30184 (NORAD 57310) is a starlink constellation satellite (v2 mini) launched Jul 10, 2023 by SPXS of US. It operates in LEO, CIRCULAR orbit with a mass of 730.00 kg.

次回通過

Passes for default location (London). Set your location on the main map for personalized predictions.

高度履歴

Loading altitude history...

軌道要素

1 57310U 23096W 26263.95237720 .00000372 00000-0 23052-4 0 9998
2 57310 43.0026 171.7290 0001348 269.0333 91.0364 15.27579473176919
Epoch: Sep 20, 2026 • Age: 30 hours

現在のステータス

高度 486.7 km
遠地点 / 近地点 N/A
速度 7.63 km/s
衛星直下点 41.48°N, 159.04°E
打ち上げ日 Jul 10, 2023
運用期間 3.2 years
タイプ internet

技術仕様

分類 Payload
質量 730.00 kg
乾燥質量 700.00 kg
長さ 0.30 m
スパン 29.00 m
形状 ? Box + pan
製造者 SPXS
バスタイプ Starlink V2M
フェーズステータス In Orbit
所有者/国 SPXS/US

Most Searched